Погода в Питляре

Погода в Питляре : погода сейчас, прогноз погоды и архив. Всё, что Вы хотите узнать о погоде в Питляре!

Хотите узнать прогноз погоды в Питляре? Тогда Вам сюда: Погода в Питляре

Поиск расширенной информации на нашем сайте:

Другие новости

Новости СМИ2

Главная страница сайта

Новости сайта

03.07.2017

Напоминаем, что на нашем специализированном сайте Метеоцентр.Азия вы можете получить высокодетализированные автоматические прогнозы погоды по пунктам России, СНГ и мира в авиационном формате (включающие направление и скорость ветра, видимость, явления погоды, количество и форму облачности, нижнюю и верхнюю границу облачности).


Погода в Питляре - сегодня

Время (UTC), дата Ветер
(°,м/с) 
Видим.   Явления Облачность Т
(°С)
Тd
(°С)
f(%) Тe
(°С)
Pmin
(гПа)
dP
(гПа)
Po
(мм)
O2
(г/м3)
Тmin Tmax R s Состояние
почвы
18 15.08.18 260 (З) 20000 м    ясно 
+11.6 +7.3 75 +11  1009.8  0.2  756  291           
21 15.08.18 290 (З) 20000 м    10/0 средняя 
[Ac und]
+10.4 +7.1 80 +10  1009.8  756  292           
00 16.08.18 240 (ЮЗ) н/о    н/о 
+9.4 +8.7 95 +8  1010.3  0.5  756  293           
03 16.08.18 230 (ЮЗ) 20000 м    10/0 средняя 
[Ac und]
+11.3 +8.2 81 +11  1010.2  0.1  756  291  +3.8        сухая 
06 16.08.18 270 (З) н/о    н/о 
+14.3 +7.6 64 +14  1010  -0.2  756  288           
09 16.08.18 230 (ЮЗ) 20000 м    10/6 600 м средняя, верхняя 
[Cu med, cong|Ac trans|Ci sp]
+14 +7.2 64 +13  1010.3  0.3  756  289           
12 16.08.18 250 (З) н/о    н/о 
+15 +7.5 61 +15  1010.6  0.3  756  288           
18 16.08.18 260 (З) 20000 м    10/5 600 м средняя, верхняя 
[Cu med, cong|Ac trans|Ci fib]
+11.8 +8.6 81 +11  1011  0.4  757  291           
21 16.08.18 270 (З) 20000 м    10/5 600 м верхняя 
[Cu med, cong|Ci sp]
+10.7 +8.4 86 +10  1011  757  292           
00 17.08.18 270 (З) 20000 м    10/0 средняя, верхняя 
[Ac lent|Ci fib]
+10.7 +8.4 86 +10  1011  757  292           
06 17.08.18 290 (З) н/о    н/о 
+11.8 +6 68 +11  1012.7  0.5  758  292           
09 17.08.18 320 (СЗ) 20000 м    10/6 600 м средняя, верхняя 
[Cu med, cong|Ac trans|Ci fib]
+12.7 +6.1 64 +13  1013.4  0.7  759  291           
12 17.08.18 320 (СЗ) н/о    н/о 
+13.2 +6.1 62 +13  1013.8  0.4  759  291           
18 17.08.18 300 (СЗ) н/о    н/о 
+10.4 +7 79 +9  1015.1  0.1  760  294           
21 17.08.18 330 (СЗ) 10 км  слаб. дождь  10/10 600 м 
[Sc]
+9.5 +8.7 95 +9  1015.5  0.4  760  294           
00 18.08.18 350 (С) 20000 м  {дождь}  10/0 средняя, верхняя 
[Ac trans|Ci sp]
+8.5 +7.4 93 +9  1016.6  1.1  761  296           
06 18.08.18 310 (СЗ) н/о    н/о 
+12 +6.9 71 +11  1018.1  0.5  762  293           
09 18.08.18 340 (С) 20000 м    10/3 600 м средняя, верхняя 
[Cu hum|Ac trans|Ci sp]
+13.9 +5.6 57 +14  1018.4  0.3  762  291           
12 18.08.18 010 (С) н/о    н/о 
+12.9 +6 63 +13  1018.9  0.5  763  293           
18 18.08.18 080 (В) 20000 м    9/0 средняя 
[Ac lent]
+6.9 +5.4 90 +8  1020.2  0.3  764  299           
21 18.08.18 080 (В) 20000 м    10/0 верхняя 
[Ci fib]
+4.3 +3.8 97 +4  1020.5  0.4  764  302           
00 19.08.18 100 (В) 0500 м  туман  ясно 
+1.3 +1.3 100 +1  1020.3  -0.3  764  306           
03 19.08.18 160 (Ю) 4000 м  в посл. час туман  10/8 300 м верхняя 
[Frnb|Ci fib]
+10 +8.6 91 +10  1019.7  -0.6  763  295  +1        влажная 
06 19.08.18 200 (Ю) н/о    н/о 
+12.1 +8.4 78 +12  1018.5  -1.2  762  293           
09 19.08.18 200 (Ю) 20000 м    10/3 600 м средняя, верхняя 
[Cu hum|Ac cast|Ci fib]
+14.5 +8.7 68 +14  1016.7  -1.8  761  290           
Время (UTC), дата Ветер
(°,м/с) 
Видим.   Явления Облачность Т
(°С)
Тd
(°С)
f(%) Тe
(°С)
Pmin
(гПа)
dP
(гПа)
Po
(мм)
O2
(г/м3)
Тmin Tmax R s Состояние
почвы

Для получения пояснительной информации подведите курсор к названию столбца.

ПОГОДА в Питляре - архив

Всё, что Вы хотите узнать о погоде в Питляре - удобно и подробно!

Выберите нужную дату (начиная с 1 января 2015* года) и нажмите кнопку "Найти".
Будут отображены архивные сводки погоды по пункту Питляр, начиная с указанной даты.


Отображать данные в формате CSV (для использования в таблицах Excel)


Внимание! Наш архив погоды предназначен исключительно для личного некоммерческого использования в познавательных целях. Если Вам необходимы официальные справки о состоянии погоды (для производственных, юридических, коммерческих и т.п. целей), обращайтесь в органы Росгидромета.

*Примечание: данная дата относится к архиву по метеостанциям СССР (Россия, СНГ, Балтия).
Архив по метеостанциям Зарубежной Европы и Азии (кроме Китая) хранится 10 дней, по другим регионам земного шара (Китай, Африка, Америка, Австралия, Океания) - 1 день.

Питляр - район местоположения метеостанции


Название, широта, долгота, высота метеостанции:
Питляр 65.8°ш. 66°д. 17 м над ур. моря [Российская Федерация]

Дополнительная информация

В oтличие oт бoльшинства пoгoдных сайтoв мы публикуем пoдрoбную метеoинфoрмацию в детальнoм прoфессиoнальнoм фoрмате.

Характеристики температуры и влажнoсти вoздуха измеряются на высoте 2 м в тени вдали oт зданий и деревьев.
Скoрoсть ветра измеряется на высoте 10 м (на урoвне рoста челoвека скoрoсть ветра ниже в 1.5-2 раза). Если метеoстанция нахoдится в гoрoде или в лесу, тo скoрoсть ветра занижена на 2-4 м/с пo сравнению с oткрытым местoм. Скoрoсть ветра над акватoриями крупных рек и oзёр, а также на вершинах хoлмoв на 2-5 м/с выше, чем в oбычных услoвиях.
Атмoсфернoе давление в разных тoчках местнoсти мoжет значительнo oтличаться oт давления на метеoстанции, в зависимoсти oт услoвий рельефа (при пoдъёме на 10 м давление пoнижается примернo на 1 мм рт.ст.).